Location: Unspecified
(0.0000°N, 0.0000°E)
Time: 09:46:10
(UTC+00:00)

Vanguard 2 Rocket - Pass Details

Date: 09 October 2022
Orbit: 555 x 3321 km, 32.9° (Epoch: 29 November)

Event Time Altitude Azimuth Distance (km) Brightness Sun altitude
Rises 18:30:44 0° 249° (WSW) 6,610 13.1 -10.8°
Reaches altitude 10° 18:34:57 10° 254° (WSW) 5,843 12.5 -11.9°
Maximum altitude 18:53:34 53° 325° (NW) 3,805 10.1 -16.5°
Drops below altitude 10° 19:11:29 10° 38° (NE) 5,592 10.5 -20.9°
Enters shadow 19:12:48 - 40° (NE) 5,823 10.6 -21.3°
